Phoenix, AZ - PHX

The Valley of the Sun

The Phoenix Sky Harbor International Airport is located in the middle of downtown Phoenix, AZ which is the fifth most populus in the United States and serves as a major hub for American Airlines. AAG alone makes up over 50% of the operations out of the PHX airport making it a key connection point for the south western United States.

PHX Based Pilots: 13   Miles to PHX: 205855
Flights from PHX: 294   Total Hours: 1096.35
Routes using PHX: 934   From PHX: 516.74
Total Miles: 403801   Hours To PHX: 579.61
Miles from PHX: 197946   PHX Charts: Click Here
VATSIM METAR: KPHX 042351Z 15007KT 10SM FEW100 FEW150 FEW250 33/10 A2983 RMK AO2 SLP084 CB DSNT NE T03280100 10339 20289 56013
 
         
View More: Click Here
   

 

Earn Your Wings

Interested in joining our PHX hub? Hover for more!

Your journey starts here. Your journey starts now. A whole new experience is at your fingertips.

Like what you see and ready to join the team?

A rewarding and memorable virtual airline experience awaits!